Temp
2 1 0 0 0 -0 -0 -1 -1 1 -1 -1 -1 -2 -2 -2 -2 -2 -2 -2 -2 -1 -1 -0 0 0 0
2 1 1 -0 -0 -0 -1 -1 -1 -0 0 -0 -0 -0 -1 -2 -2 -2 -2 -3 -2 -2 -1 -1 -1 -0 -0
2 1 0 -0 -0 -0 -1 -1 0 1 0 -0 -0 -0 -0 -2 -2 -1 -2 -3 -2 -2 -2 -1 -1 -1 -1
2 1 1 -1 -1 -1 0 -0 -1 -1 -1 -0 -1 -1 -2 -1 -2 -1 -3 -3 -3 -2 -2 -2 -2 -2 -2
2 1 1 -0 -1 -2 -1 -1 -0 -2 -1 -1 -2 -2 -2 -2 -3 -3 -4 -3 -3 -3 -3 -3 -3 -2 -2
2 2 -0 -1 -2 -2 -2 -2 -0 -1 -3 -2 -2 -2 -2 -3 -2 -4 -4 -4 -4 -4 -4 -3 -3 -3 -3
1 0 -1 -2 -3 -3 -3 -3 -3 -3 -4 -2 -1 -2 -2 -3 -3 -4 -4 -4 -4 -4 -4 -4 -4 -4 -3
-1 -2 -3 -3 -3 -3 -4 -4 -3 -4 -5 -4 -3 -2 -3 -3 -3 -4 -4 -4 -5 -4 -4 -4 -4 -4 -4
-2 -2 -2 -2 -3 -4 -4 -4 -2 -3 -4 -5 -3 -4 -4 -3 -3 -4 -4 -4 -4 -4 -4 -4 -4 -4 -5
-3 -3 -3 -4 -3 -3 -4 -4 -4 -3 -4 -5 -5 -5 -5 -4 -4 -4 -4 -4 -4 -4 -4 -4 -4 -5 -5
-4 -4 -5 -5 -5 -4 -4 -5 -5 -5 -5 -6 -6 -6 -6 -5 -5 -4 -4 -5 -4 -4 -4 -4 -4 -4 -5
-4 -4 -5 -5 -5 -4 -4 -5 -6 -5 -6 -7 -7 -7 -7 -6 -5 -5 -5 -5 -4 -5 -4 -5 -5 -5 -5
-4 -5 -5 -4 -3 -4 -5 -6 -5 -4 -5 -7 -7 -7 -7 -6 -6 -5 -5 -5 -4 -5 -5 -5 -5 -6 -5
-5 -5 -4 -4 -5 -5 -5 -6 -6 -5 -6 -6 -6 -6 -6 -6 -6 -5 -5 -4 -4 -5 -5 -6 -6 -6 -5
-5 -5 -5 -5 -5 -5 -6 -7 -6 -5 -5 -5 -6 -6 -6 -6 -5 -5 -4 -5 -5 -5 -6 -6 -6 -6 -5
-5 -5 -5 -5 -6 -6 -7 -6 -6 -5 -5 -6 -6 -6 -6 -5 -4 -5 -5 -5 -6 -6 -6 -6 -6 -6 -6
-6 -6 -6 -6 -7 -7 -7 -6 -6 -5 -5 -6 -6 -6 -6 -5 -5 -5 -6 -6 -6 -6 -6 -6 -6 -6 -6
Height
908 911 912 914 912 910 908 907 905 903 901 898 895 893 890 887 884 881 879 876 874 870 866 861 856 852 847
906 908 910 911 910 909 908 907 905 902 900 897 894 892 889 885 882 878 875 873 870 867 863 860 854 849 844
903 906 908 908 908 908 907 906 904 901 899 897 894 892 888 883 878 875 872 870 868 864 860 856 851 846 841
901 905 907 907 908 908 908 906 904 902 899 895 892 890 885 881 877 872 869 866 864 861 856 852 848 843 837
902 904 906 907 908 909 909 907 904 900 897 896 893 890 884 880 876 872 868 863 860 856 852 847 843 839 833
900 902 905 906 906 907 907 908 905 903 897 895 892 888 884 879 874 870 865 861 855 852 848 843 839 834 829
898 902 905 905 905 906 906 906 905 902 899 895 891 886 882 877 872 867 863 859 853 848 844 839 834 830 824
899 901 904 904 904 905 905 905 904 902 901 898 892 885 879 875 871 866 861 856 851 846 840 835 831 825 819
898 900 902 905 904 904 906 906 904 903 901 898 893 889 879 874 870 864 859 854 848 842 837 832 826 819 812
899 900 902 905 905 905 905 906 905 901 899 896 892 889 881 873 868 863 859 854 848 841 835 829 822 815 808
900 901 903 905 906 904 904 904 904 901 899 895 892 890 886 877 868 863 860 852 846 840 833 827 820 815 807
901 904 905 906 905 904 905 904 901 898 895 893 892 889 885 879 871 861 857 852 845 838 831 822 817 812 807
901 903 905 905 903 904 903 902 898 896 893 891 890 887 884 877 871 862 854 846 842 837 829 821 814 808 801
901 902 904 903 904 903 902 900 897 895 892 890 888 885 879 874 869 860 856 850 840 834 828 820 812 807 801
900 902 903 903 903 902 900 898 896 894 891 888 885 881 877 872 865 861 854 847 841 833 826 818 810 804 798
900 902 903 903 902 901 899 898 896 893 890 886 881 876 873 869 864 859 853 846 839 831 826 818 807 799 794
900 902 902 902 902 901 899 897 895 892 889 884 881 878 872 866 861 859 853 843 837 830 824 817 809 798 792
Wind_Speed
7 7 3 0 3 5 7 7 8 8 9 11 11 12 14 15 16 17 17 18 21 22 23 24 25 27 29
11 7 5 1 2 4 6 7 5 9 11 10 11 13 14 15 17 17 17 18 21 22 24 25 26 28 29
11 7 5 1 1 4 4 6 4 9 11 11 12 13 15 16 17 16 17 20 21 23 24 26 28 28 29
11 8 4 1 2 4 4 6 5 9 12 13 14 15 15 19 19 17 19 21 22 24 25 26 27 28 29
10 8 5 3 3 4 5 8 6 9 15 11 13 14 15 16 17 20 21 21 23 26 26 26 27 28 30
10 8 6 5 3 2 4 6 6 8 16 15 13 16 16 17 17 21 21 24 26 26 26 26 27 29 30
11 8 8 5 4 3 2 2 4 10 13 11 16 18 19 19 20 21 24 26 25 27 27 28 28 28 30
10 10 7 6 5 3 3 4 5 6 7 6 16 21 26 17 17 23 25 26 25 28 28 28 28 29 30
13 11 9 6 5 3 3 5 3 3 3 9 10 18 20 14 19 24 25 25 28 29 30 30 30 31 30
11 9 7 4 4 4 4 3 4 5 4 9 13 17 9 11 25 21 21 27 28 29 30 31 31 34 32
9 8 6 3 1 3 4 3 5 5 6 8 10 13 12 19 23 18 23 29 29 27 29 31 31 29 32
8 6 4 2 1 4 4 5 6 8 8 7 9 14 18 22 17 27 29 28 24 25 34 33 33 28 25
8 6 4 1 2 5 6 7 7 4 6 6 10 16 19 19 22 28 31 27 17 33 31 34 35 32 30
8 7 3 1 2 5 6 9 7 5 9 7 9 14 19 19 22 27 24 20 34 31 31 33 34 30 26
9 6 3 0 3 5 7 7 8 12 13 11 12 14 16 21 24 21 26 27 29 33 32 32 33 30 27
8 6 3 1 3 5 6 7 9 11 13 15 17 21 20 19 9 24 22 28 31 32 29 28 31 36 33
8 5 2 1 3 4 6 7 9 11 13 14 15 16 18 10 21 18 29 29 29 27 29 28 30 35 33
Wind_Direction
145 161 140 229 343 350 351 348 347 13 360 352 355 356 356 353 349 343 341 341 340 339 337 335 333 331 329
152 162 172 195 324 353 356 348 8 357 2 1 6 3 356 352 345 341 338 338 335 334 332 329 328 327 326
145 165 169 119 3 345 355 354 359 1 357 356 357 354 350 349 346 337 335 336 333 328 327 327 325 323 323
137 149 147 125 59 14 360 357 342 347 348 345 344 340 342 348 345 343 339 336 331 327 325 324 322 322 320
140 139 136 118 62 9 347 339 328 350 346 338 333 337 341 342 340 340 337 334 330 327 325 324 322 321 320
146 146 142 128 110 67 19 359 354 345 346 337 338 339 339 337 342 340 337 336 334 330 327 326 323 321 319
141 142 147 151 141 121 69 13 314 325 343 324 344 337 339 336 340 339 337 334 332 332 331 327 325 323 321
131 134 135 132 123 110 48 335 309 315 336 295 337 335 336 336 338 338 337 336 334 332 331 330 329 327 323
130 126 122 116 103 83 22 7 326 309 313 322 328 326 323 327 338 339 341 343 339 339 335 333 333 332 328
124 121 114 105 81 70 34 347 337 310 328 336 331 345 322 320 332 332 336 335 333 332 331 331 332 330 325
133 125 130 124 62 19 359 316 282 273 297 339 315 329 325 321 321 326 330 328 326 325 328 330 330 329 322
130 138 143 155 15 353 326 303 292 278 295 306 290 314 311 313 314 315 321 323 322 325 327 328 329 328 324
145 148 164 163 19 344 331 328 322 311 317 304 301 308 309 302 305 311 320 327 329 329 328 325 324 327 325
152 159 160 89 356 348 344 338 338 328 325 318 313 315 314 312 310 309 317 321 324 329 327 323 323 325 323
156 159 159 174 347 350 342 346 344 333 335 333 326 327 322 313 307 314 318 320 323 323 326 322 320 322 321
164 169 177 344 335 341 345 343 333 334 328 329 337 341 333 331 306 325 320 317 319 320 320 320 318 322 324
173 176 175 311 337 339 344 338 334 328 327 333 339 340 332 326 323 328 320 318 319 319 319 318 313 313 318